Regional Weather Roundup
Issued by NWS

Home | Current Version | Previous Version | Text Only | Print | Product List | Glossary On
Versions: 1 2 3 4 5 6 7 8 9 10 11 12 13 14 15 16 17 18 19 20 21 22 23 24 25 26 27 28 29 30 31 32 33 34 35 36 37 38 39 40 41 42 43 44 45 46 47 48 49 50
000
ASUS44 KLUB 081010
RWRTX
WEST TEXAS WEATHER ROUNDUP
NATIONAL WEATHER SERVICE LUBBOCK TX
400 AM CST MON FEB 08 2016

NOTE: "FAIR" INDICATES FEW OR NO CLOUDS BELOW 12,000 FEET WITH NO
SIGNIFICANT WEATHER AND/OR OBSTRUCTIONS TO VISIBILITY.

TXZ004-006>008-010-012-014-016-OKZ002-081100-
TEXAS PANHANDLE/OKLAHOMA PANHANDLE

CITY           SKY/WX    TMP DP  RH WIND       PRES   REMARKS
AMARILLO       CLOUDY    26  13  57 NW13      30.42S WCI  15
BORGER         CLEAR     28  14  55 W8        30.43S WCI  20
CANADIAN       CLEAR     33  17  51 NW14      30.38F WCI  23
DALHART        CLOUDY    22  13  68 NW13      30.43F WCI  10
DUMAS          CLOUDY    23  14  68 NW15      30.42S WCI  10
GUYMON         CLEAR     26  14  60 W8        30.40F WCI  18
PAMPA          CLEAR     25  17  71 NW12      30.40S WCI  14
PERRYTON       CLEAR     30  17  57 NW14      30.37F WCI  20
$$

TXZ026-029-035-045-048-081100-
SOUTHERN PANHANDLE/SOUTH PLAINS/ROLLING PLAINS

CITY           SKY/WX    TMP DP  RH WIND       PRES   REMARKS
CHILDRESS      CLEAR     31  14  49 NW7       30.41S WCI  24
SEMINOLE       CLOUDY    32  16  51 N8        30.44R WCI  25
LUBBOCK        CLOUDY    26  13  57 N8        30.42R WCI  18
PLAINVIEW      CLOUDY    24  10  56 NW7       30.41S WCI  15
SNYDER           N/A     36  14  41 N13       30.40S WCI  27
$$

TXZ052-054-060>062-072-078-127-140-154-169-081100-
PERMIAN BASIN/CONCHO VALLEY/BIG COUNTRY/EDWARDS PLATEAU

CITY           SKY/WX    TMP DP  RH WIND       PRES   REMARKS
ABILENE        CLEAR     33  19  56 N9        30.38S WCI  25
BIG SPRING     CLOUDY    35  14  42 N13       30.42R WCI  26
BROWNWOOD      PTCLDY    41  14  33 N8        30.35R
JUNCTION       CLOUDY    44  24  45 N10       30.32R
MIDLAND        CLOUDY    36  17  46 N9        30.40S WCI  29
ODESSA         CLOUDY    35  16  45 NE8       30.41S WCI  29
SAN ANGELO     CLOUDY    41  18  39 NE9       30.37S
SONORA         CLOUDY    41  25  52 N13       30.38R
SWEETWATER     CLEAR     35  17  48 N9        30.41R WCI  28
WINK           PTCLDY    39  16  39 NE7       30.41R WCI  34
$$

TXZ055-058-074-075-080-082-081100-
FAR WEST/SOUTHWEST MOUNTAINS/TRANS PECOS

CITY           SKY/WX    TMP DP  RH WIND       PRES   REMARKS
ALPINE         CLOUDY    40  19  41 N7        30.42R
DRYDEN           N/A     47  24  40 N8        30.34R
EL PASO        MOCLDY    40  15  36 NE8       30.30S WCI  34
FORT STOCKTON  CLOUDY    40  24  53 NE14      30.40R WCI  32
GUADALUPE PASS CLOUDY    37  18  46 NE33      30.35S WCI  24
MARFA          CLOUDY    42  16  34 N14       30.35R
PECOS          CLOUDY    40  22  48 NE10      30.43R WCI  34
PRESIDIO       FAIR      49  15  25 N9        30.27S
$$

TXZ014-016-019-021>030-083-081100
TEXAS TECH WEST TEXAS MESONET/TEXAS PANHANDLE/NORTHERN SOUTH PLAINS

CITY           SKY/WX    TMP DP  RH WIND       PRES   REMARKS
ABERNATHY 5ENE   N/A     25  15  65 NW10      30.42S WCI  15
AMARILLO 9NNE    N/A     22  13  70 N2        30.44F
AMARILLO 7SSE    N/A     28  13  53 NW10      30.43S WCI  18
AMHERST 1NE      N/A     24  13  63 NW9       30.44R WCI  14
BOOTLEG 11WNW    N/A     19  11  70 NW9       30.46S WCI   8
CANADIAN 6E      N/A     32  14  47 NW16      30.34F WCI  21
CAPROCK CYN SP   N/A     38   8  29 NW6       30.43R WCI  33
CHILDRESS 2NNE   N/A     31  15  51 NW8       30.41R WCI  23
CLARENDON 2WSW   N/A     28  13  53 NW12      30.41R WCI  18
CLAUDE 12SW      N/A     27  12  54 NW12      30.41S WCI  16
DIMMITT 2NE      N/A     19  11  71 W10       30.43S WCI   8
FLOYDADA 2NNE    N/A     20  11  67 NW7       30.40F WCI  11
FRIONA 2NE       N/A     17  12  79 NW6       30.45S WCI   9
GOODLETT 3W      N/A     32  16  50 W12       30.40S WCI  23
HART 3N          N/A     22  12  64 NW10      30.43S WCI  12
HEREFORD 2NW     N/A     21  11  64 NW8       30.44S WCI  11
MCLEAN 1E        N/A     28  13  53 W13       30.37S WCI  17
MEMPHIS 1NE      N/A     36  12  37 NW9       30.41S WCI  29
MULESHOE 2SSW    N/A     16  12  82 W5        30.45S WCI   9
OLTON 6S         N/A     22  12  65 NW9       30.43R WCI  11
PALO DURO SP     N/A     30  11  45 NW12      30.43S WCI  20
PAMPA 2E         N/A     27  15  61 W14       30.39S WCI  15
PLAINVIEW 1S     N/A     26  13  57 NW9       30.42S WCI  17
SILVERTON 7ESE   N/A     30  10  42 NW13      30.42R WCI  20
TULIA 2ENE       N/A     20  13  77 NW9       30.43S WCI   9
TURKEY 2WSW      N/A     34  13  41 NW13      30.41F WCI  25
UMBARGER 3NNE    N/A     21  11  64 NW8       30.44R WCI  12
$$

TXZ033>036-039>041-045>048-081100
TEXAS TECH WEST TEXAS MESONET/SOUTH PLAINS

CITY           SKY/WX    TMP DP  RH WIND       PRES   REMARKS
AIKEN 3WSW       N/A     23  12  63 NW12      30.43S WCI  12
ANDREWS 2NE      N/A     32  15  48 N8        30.42R WCI  25
ANTON 6SSW       N/A     23  13  64 NW9       30.44R WCI  13
BROWNFIELD 2S    N/A     29  14  51 N8        30.43R WCI  22
DENVR CTY 7WNW   N/A     25  15  66 N9        30.43R WCI  15
GAIL 2ESE        N/A     32  14  47 N8        30.40S WCI  24
LAMESA 2SE       N/A     31  13  46 N9        30.42R WCI  23
LEVELLAND 4S     N/A     26  13  59 N9        30.43R WCI  16
LUBBOCK 3WNW     N/A     25  12  59 NW5       30.44R WCI  19
MORTON 1ENE      N/A     20  13  73 NW8       30.44S WCI  10
ODONNELL 1N      N/A     27  13  56 N7        30.42R WCI  19
PLAINS 3N        N/A     25  13  60 N8        30.44R WCI  16
RALLS 1SE        N/A     27  11  50 NW9       30.42R WCI  18
REESE CENTER     N/A     22  13  68 NW9       30.43R WCI  12
SEAGRAVES 1SW    N/A     28  15  59 N8        30.43  WCI  20
SEMINOLE 2NNE    N/A     29  15  58 N9        30.43R WCI  20
SLATON 2NE       N/A     29  12  49 NW12      30.42R WCI  20
SNYDER 3E        N/A     35  13  40 N15       30.39R WCI  25
SUNDOWN 8SW      N/A     24  12  61 NW6       30.43R WCI  16
TAHOKA 3NNE      N/A     25  11  57 NW9       30.41S WCI  15
WOLFFORTH 6SSW   N/A     26  13  58 NW9       30.43R WCI  16
$$

TXZ031-032-036>038-042>044-081100-
TEXAS TECH WEST TEXAS MESONET/ROLLING PLAINS

CITY           SKY/WX    TMP DP  RH WIND       PRES   REMARKS
ASPERMONT 3NE    N/A     31  14  50 NW2       30.41S
FLUVANNA 3WNW    N/A     34  13  41 N13       30.39S WCI  25
GRAHAM 5SSW      N/A     31  12  44 N17       30.40S WCI  20
GUTHRIE 10WSW    N/A     37  12  36 NW9       30.40S WCI  30
HASKELL 1NW      N/A     35  16  45 NW14      30.39S WCI  26
JAYTON 1SSE      N/A     37  12  36 N13       30.41S WCI  29
KNOX CITY 3NW    N/A     36  14  40 NW9       30.40F WCI  29
LK A HENRY 1NW   N/A     32  12  43 NW8       30.41S WCI  25
NORTHFIELD 1S    N/A     31  15  53 NW7       30.43S WCI  24
ODELL 4ENE       N/A     31  18  59 W8        30.40S WCI  23
PADUCAH 10SW     N/A     32  15  48 NW13      30.41S WCI  23
POST 1NE         N/A     31  12  44 NW9       30.42S WCI  23
RRING SPRGS 3N   N/A     34  12  40 NW13      30.40F WCI  25
SEYMOUR 3NW      N/A     36  16  44 NW14      30.38F WCI  27
SPUR 1W          N/A     37   9  32 N14       30.40R WCI  28
WEINERT 2NNE     N/A     35  16  46 NW7       30.40S WCI  29
WHITE RVR 6NE    N/A     33  10  38 NW14      30.40R WCI  23
$$

TXZ052-054-060>062-072-078-127-140-154-169-081100-
TEXAS TECH WEST TEXAS MESONET/PERMIAN BASIN/
CONCHO VALLEY/BIG COUNTRY/EDWARDS PLATEAU

CITY           SKY/WX    TMP DP  RH WIND       PRES   REMARKS
COYANOSA 2N      N/A     41  22  47 NE8       30.42S
JUNCTION 1SSW    N/A     43  25  49 N6        30.34R
MERTZON 3NNE     N/A     36  15  43 N3        30.39R
SAN ANGELO 7NW   N/A     41   8  25 N3        30.38R
STRLNG CT 4WSW   N/A     36  16  44 NW5       30.40R WCI  32
ST LAWRNCE 5SW   N/A     35  16  45 N9        30.39S WCI  27
SWEETWATR 11SW   N/A     35  16  46 N13       30.38S WCI  26
WALL 1E          N/A     33  18  54 N8        30.38S WCI  25
$$

TXZ055-058-074-075-080-082-081100-
TEXAS TECH WEST TEXAS MESONET/FAR WEST/SOUTHWEST MOUNTAINS/TRANS PECOS

CITY           SKY/WX    TMP DP  RH WIND       PRES   REMARKS
PRSMN GAP BBNP   N/A     49  16  27 N21       30.32R
GUADLPE MTN NP   N/A     37  17  44 NE8       30.41F WCI  31
$$



USA.gov is the U.S. government's official web portal to all federal, state and local government web resources and services.